Weather History for KCRW - November, 2013

Change the Weather History Date:

Sunday, November 10, 2013

  Actual Average Record
Temperature  
Mean Temperature 44 °F 49 °F  
Max Temperature 55 °F 60 °F 80 °F (1946)
Min Temperature 32 °F 38 °F 22 °F (1957)
Degree Days  
Heating Degree Days 21 16  
Month to date heating degree days 147 148  
Since 1 July heating degree days 453 488  
Cooling Degree Days 0 0  
Month to date cooling degree days 0 0  
Year to date cooling degree days 1121 1094  
Moisture  
Dew Point 30 °F    
Average Humidity 56    
Maximum Humidity 75    
Minimum Humidity 36    
Precipitation  
Precipitation 0.00 in 0.12 in 2.37 in (1983)
Month to date precipitation 0.76 1.18  
Year to date precipitation 38.56 38.21  
Snow  
Snow 0.00 in - - ()
Month to date snowfall 0.0  
Since 1 September snowfall T  
Snow Depth 0.00 in    
Sea Level Pressure  
Sea Level Pressure 30.23 in    
Wind  
Wind Speed 9 mph (West)    
Max Wind Speed 21 mph    
Max Gust Speed 31 mph    
Visibility 10 miles    
Events      
T = Trace of Precipitation, MM = Missing Value Source: NWS Daily Summary

Daily Weather History Graph

Daily Weather History Graph

Search for Another Location

Airport or City:

Trip Planner

Search our weather history database for the weather conditions in past years. The results will help you decide how hot, cold, wet, or windy it might be!

Date:

Astronomy

Nov. 10, 2013 Rise Set
Actual Time 7:02 AM EST 5:17 PM EST
Civil Twilight 6:34 AM EST 5:45 PM EST
Nautical Twilight 6:02 AM EST 6:17 PM EST
Astronomical Twilight 5:31 AM EST 6:48 PM EST
Moon 1:16 PM EST (11/10) No Moon Set
Length of Visible Light 11h 10m
Length of Day
10h 14m
First Quarter, 55% of the Moon is Illuminated
Nov 10
First Quarter
Nov 17
Full
Nov 25
Last Quarter
Dec 2
New
Dec 9
First Quarter

Hourly Weather History & Observations

Time (EST) Temp. Windchill Dew Point Humidity Pressure Visibility Wind Dir Wind Speed Gust Speed Precip Events Conditions
12:54 AM 50.0 °F - 28.9 °F 44% 30.13 in 10.0 mi SW 9.2 mph - N/A   Clear
1:54 AM 50.0 °F - 30.0 °F 46% 30.13 in 10.0 mi SW 11.5 mph - N/A   Clear
2:54 AM 50.0 °F - 30.9 °F 48% 30.13 in 10.0 mi WSW 12.7 mph - N/A   Clear
3:54 AM 50.0 °F - 32.0 °F 50% 30.13 in 10.0 mi SW 11.5 mph - N/A   Clear
4:54 AM 48.9 °F - 33.1 °F 54% 30.14 in 10.0 mi SW 11.5 mph - N/A   Clear
5:54 AM 48.9 °F - 33.1 °F 54% 30.16 in 10.0 mi SW 10.4 mph - N/A   Clear
6:54 AM 48.0 °F - 34.0 °F 58% 30.17 in 10.0 mi SW 10.4 mph - N/A   Clear
7:54 AM 48.0 °F - 35.1 °F 61% 30.19 in 10.0 mi SW 10.4 mph - N/A   Clear
8:54 AM 50.0 °F - 36.0 °F 59% 30.19 in 10.0 mi WSW 11.5 mph 19.6 mph N/A   Clear
9:54 AM 52.0 °F - 37.0 °F 57% 30.20 in 10.0 mi West 10.4 mph 23.0 mph N/A   Scattered Clouds
10:54 AM 53.1 °F - 33.1 °F 47% 30.21 in 10.0 mi West 11.5 mph 27.6 mph N/A   Scattered Clouds
11:54 AM 53.1 °F - 32.0 °F 45% 30.22 in 10.0 mi West 16.1 mph 25.3 mph N/A   Scattered Clouds
12:54 PM 53.1 °F - 33.1 °F 47% 30.21 in 10.0 mi West 11.5 mph 26.5 mph N/A   Scattered Clouds
1:54 PM 52.0 °F - 30.9 °F 45% 30.23 in 10.0 mi NW 17.3 mph 26.5 mph N/A   Scattered Clouds
2:54 PM 51.1 °F - 27.0 °F 39% 30.25 in 10.0 mi NW 15.0 mph 24.2 mph N/A   Partly Cloudy
3:54 PM 50.0 °F - 25.0 °F 38% 30.27 in 10.0 mi NW 10.4 mph 17.3 mph N/A   Partly Cloudy
4:54 PM 48.0 °F - 24.1 °F 39% 30.29 in 10.0 mi NW 10.4 mph - N/A   Partly Cloudy
5:54 PM 46.0 °F 44.8 °F 24.1 °F 42% 30.31 in 10.0 mi WNW 3.5 mph - N/A   Clear
6:54 PM 45.0 °F 43.5 °F 25.0 °F 46% 30.32 in 10.0 mi NW 3.5 mph - N/A   Clear
7:54 PM 42.1 °F - 25.0 °F 51% 30.33 in 10.0 mi Calm Calm - N/A   Clear
8:54 PM 37.9 °F - 27.0 °F 65% 30.34 in 10.0 mi Calm Calm - N/A   Clear
9:54 PM 37.0 °F - 28.0 °F 70% 30.35 in 10.0 mi Calm Calm - N/A   Clear
10:54 PM 36.0 °F - 28.0 °F 73% 30.35 in 10.0 mi Calm Calm - N/A   Clear
11:54 PM 32.0 °F - 28.0 °F 85% 30.35 in 10.0 mi Calm Calm - N/A   Clear